Regional Weather Roundup
Issued by NWS

Home | Current Version | Previous Version | Graphics & Text | Print | Product List | Glossary On
Versions: 1 2 3 4 5 6 7 8 9 10 11 12 13 14 15 16 17 18 19 20 21 22 23 24 25 26 27 28 29 30 31 32 33 34 35 36 37 38 39 40 41 42 43 44 45 46 47 48 49 50
000
ASUS43 KOAX 200502
RWRNE

WEATHER ROUNDUP FOR NEBRASKA
NATIONAL WEATHER SERVICE OMAHA NE
1100 PM CST THU JAN 19 2017

NOTES: SATELLITE DATA IS BEING USED TO AUGMENT CLOUD COVER ABOVE
       12000 FEET.
       "FAIR" INDICATES FEW OR NO CLOUDS BELOW 12,000 FEET WITH NO
       SIGNIFICANT WEATHER AND/OR OBSTRUCTIONS TO VISIBILITY.

  * THESE STATIONS DO NOT REPORT WEATHER SUCH AS RAIN...SNOW OR FOG.

NEZ001>004-019>022-054>056-200600-
NEBRASKA PANHANDLE

CITY           SKY/WX    TMP DP  RH WIND       PRES   REMARKS
SCOTTSBLUFF    CLOUDY    30  23  75 NW7       29.51F WCI  23
ALLIANCE       CLOUDY    20  18  92 W6        29.49R WCI  12
CHADRON        CLOUDY    25  21  85 SW7       29.49F WCI  17
KIMBALL        CLOUDY    35  27  75 NW9       29.51S WCI  27
SIDNEY         CLOUDY    30  23  75 NW8       29.51F WCI  22
$$

NEZ057>060-069>072-079>082-200600-
SOUTHWEST NEBRASKA

CITY           SKY/WX    TMP DP  RH WIND       PRES   REMARKS
NORTH PLATTE   CLOUDY    38  36  92 SW5       29.55S WCI  34
IMPERIAL       FOG       33  33 100 SW9       29.55R VSB 1/2 WCI  25
LEXINGTON      CLOUDY    37  36  96 SW5       29.57S FOG     WCI  33
MCCOOK         FOG       34  34 100 S5        29.56S VSB 1/2 WCI  30
OGALLALA       FOG       32  32  99 SW6       29.54R VSB 3/4 WCI  27
$$

NEZ005>010-023>029-035>040-094-200600-
NORTH CENTRAL NEBRASKA

CITY           SKY/WX    TMP DP  RH WIND       PRES   REMARKS
VALENTINE      CLOUDY    30  28  92 S5        29.45F FOG     WCI  25
AINSWORTH      CLOUDY    35  35  99 SW16G23   29.47F WCI  25
BROKEN BOW     CLOUDY    41  38  89 SW8       29.54S
O`NEILL        CLOUDY    42  39  92 S14       29.52S
ORD            CLOUDY    40  37  89 S7        29.55S
THEDFORD       CLOUDY    34  33  96 SW17      29.50F FOG     WCI  24
$$

NEZ041-046>049-061>064-073>077-083>087-200600-
SOUTH CENTRAL NEBRASKA

CITY           SKY/WX    TMP DP  RH WIND       PRES   REMARKS
GRAND ISLAND   FOG       38  38 100 S5        29.58R VSB 1/2 WCI  34
AURORA         FOG       37  37 100 S3        29.58S VSB 1/4
HASTINGS       FOG       39  38  96 S3        29.58S VSB 1/4
HEBRON         FOG       39  39  99 SE5       29.59S VSB 3/4
HOLDREGE       CLOUDY    39  38  97 SW6       29.57R WCI  35
KEARNEY *      CLOUDY    37  36  93 CALM      29.58R
YORK           FOG       39  39 100 S6        29.59S VSB 1/2 WCI  35
$$

NEZ011>018-030>034-042>045-200600-
NORTHEAST NEBRASKA

CITY           SKY/WX    TMP DP  RH WIND       PRES   REMARKS
NORFOLK        CLOUDY    38  37  97 S7        29.57S WCI  33
ALBION         CLOUDY   N/A N/A N/A S5        29.58R FOG
BLAIR          FOG       40  39  98 SE8       29.61F VSB 1/4 WCI  34
FREMONT        FOG       39  39 100 SE7       29.61F VSB 3/4 WCI  34
TEKAMAH        FOG       37  36  96 SE7       29.62F VSB 1/4 WCI  32
WAYNE          CLOUDY    38  37  99 SE7       29.59S FOG     WCI  32
$$

NEZ050>053-065>068-078-088>093-200600-
SOUTHEAST NEBRASKA

CITY           SKY/WX    TMP DP  RH WIND       PRES   REMARKS
LINCOLN        CLOUDY    41  40  96 SE6       29.61F
OMAHA EPPLEY   CLOUDY    39  36  89 SE5       29.63F FOG
BEATRICE       FOG       40  40 100 E7        29.60F VSB 3/4
FALLS CITY     FOG       41  32  70 CALM      29.62F VSB 1/4
NEBRASKA CITY  FOG       39  39 100 E3        29.63F VSB 1/4
PLATTSMOUTH    FOG       38  37  93 E5        29.63F VSB 1/2 WCI  35
$$

NEZ044-045-051>053-067-200600-
OMAHA AREA

CITY           SKY/WX    TMP DP  RH WIND       PRES   REMARKS
OMAHA EPPLEY   CLOUDY    39  36  89 SE5       29.63F FOG
BLAIR          FOG       40  39  98 SE8       29.61F VSB 1/4 WCI  34
FREMONT        FOG       39  39 100 SE7       29.61F VSB 3/4 WCI  34
MILLARD        CLOUDY    42  41  97 SE3       29.63S FOG
OFFUTT AFB     DRZL/FOG  38  38 100 CALM      29.63F VSB 1/4
PLATTSMOUTH    FOG       38  37  93 E5        29.63F VSB 1/2 WCI  35
WAHOO          FOG       38  37  97 SE9       29.60F VSB 1/2 WCI  32
$$



USA.gov is the U.S. government's official web portal to all federal, state and local government web resources and services.